GW7039 Weather Reports


Display with metric or nautical units.
time (UTC)temp
F
wind
direction
speed
MPH
gust
MPH
rain 1hr
in
rain 24hr
in
rain mn
in
humidity
%
barometer
mb
20260509201621 72 309 7.0 16.0 0.00 0.00 0.00 32 1004.9
20260509201119 73 258 8.0 11.0 0.00 0.00 0.00 32 1004.9
20260509200615 74 263 8.0 16.0 0.00 0.00 0.00 32 1005.1
20260509200110 74 215 4.0 9.0 0.00 0.00 0.00 33 1004.9
20260509195607 74 261 10.0 15.0 0.00 0.00 0.00 31 1005.0
20260509195101 73 223 13.0 19.0 0.00 0.00 0.00 32 1005.2
20260509194601 72 281 10.0 23.0 0.00 0.00 0.00 32 1005.1
20260509194059 73 220 9.0 17.0 0.00 0.00 0.00 32 1005.3
20260509193554 73 258 3.0 17.0 0.00 0.00 0.00 33 1005.3
20260509193050 72 217 12.0 22.0 0.00 0.00 0.00 32 1005.1
20260509192547 73 219 9.0 14.0 0.00 0.00 0.00 32 1005.2
20260509192043 72 235 9.0 14.0 0.00 0.00 0.00 33 1005.3
20260509191542 72 249 10.0 22.0 0.00 0.00 0.00 32 1005.2
20260509191039 72 237 7.0 17.0 0.00 0.00 0.00 32 1005.3
20260509190536 72 175 11.0 15.0 0.00 0.00 0.00 32 1005.1
20260509190034 72 269 6.0 9.0 0.00 0.00 0.00 31 1005.2
20260509185531 72 218 7.0 11.0 0.00 0.00 0.00 31 1005.1
20260509185027 72 131 3.0 16.0 0.00 0.00 0.00 32 1005.1
20260509184525 72 222 8.0 15.0 0.00 0.00 0.00 31 1005.1
20260509184021 72 269 8.0 17.0 0.00 0.00 0.00 32 1005.0
20260509183517 71 266 5.0 14.0 0.00 0.00 0.00 31 1005.0
20260509183013 72 223 6.0 14.0 0.00 0.00 0.00 31 1004.8
20260509182509 72 249 7.0 9.0 0.00 0.00 0.00 32 1004.8
20260509182006 72 288 7.0 16.0 0.00 0.00 0.00 32 1004.9
20260509181505 73 204 8.0 15.0 0.00 0.00 0.00 33 1005.0
20260509181002 73 287 3.0 7.0 0.00 0.00 0.00 33 1004.9
20260509180457 71 200 3.0 9.0 0.00 0.00 0.00 34 1005.2
20260509175954 71 256 3.0 11.0 0.00 0.00 0.00 33 1005.1
20260509175450 71 277 6.0 15.0 0.00 0.00 0.00 32 1005.1
20260509174947 72 231 10.0 14.0 0.00 0.00 0.00 32 1005.3
20260509174444 71 250 4.0 14.0 0.00 0.00 0.00 32 1005.2
20260509173939 70 212 7.0 13.0 0.00 0.00 0.00 31 1005.1
20260509173438 71 271 6.0 13.0 0.00 0.00 0.00 33 1005.3
20260509172935 71 331 5.0 11.0 0.00 0.00 0.00 33 1005.3
20260509172432 71 288 8.0 10.0 0.00 0.00 0.00 34 1005.4
20260509171928 71 298 9.0 15.0 0.00 0.00 0.00 34 1005.4
20260509171424 71 262 5.0 11.0 0.00 0.00 0.00 37 1005.4
20260509170921 72 292 4.0 9.0 0.00 0.00 0.00 37 1005.4
20260509170416 72 274 6.0 16.0 0.00 0.00 0.00 36 1005.5
20260509165912 71 297 4.0 17.0 0.00 0.00 0.00 38 1005.2
20260509165406 71 174 3.0 11.0 0.00 0.00 0.00 40 1005.4
20260509164902 71 203 6.0 14.0 0.00 0.00 0.00 38 1005.4
20260509164358 71 249 6.0 11.0 0.00 0.00 0.00 40 1005.3
20260509163854 70 237 8.0 10.0 0.00 0.00 0.00 47 1005.3
20260509163352 69 273 8.0 10.0 0.00 0.00 0.00 49 1005.4
20260509162851 69 235 5.0 8.0 0.00 0.00 0.00 52 1005.2
20260509162349 69 240 4.0 15.0 0.00 0.00 0.00 54 1005.4
20260509161846 69 255 3.0 6.0 0.00 0.00 0.00 54 1005.3
20260509161342 68 222 9.0 10.0 0.00 0.00 0.00 58 1005.3
20260509160838 67 221 8.0 9.0 0.00 0.00 0.00 59 1005.3
20260509160334 67 218 6.0 10.0 0.00 0.00 0.00 60 1005.3
20260509155829 67 230 5.0 8.0 0.00 0.00 0.00 61 1005.4
20260509155326 66 211 5.0 10.0 0.00 0.00 0.00 63 1005.3
20260509154822 68 198 5.0 7.0 0.00 0.00 0.00 60 1005.3
20260509154319 66 222 4.0 8.0 0.00 0.00 0.00 63 1005.4
20260509153816 65 223 6.0 10.0 0.00 0.00 0.00 66 1005.3
20260509153313 64 173 5.0 13.0 0.00 0.00 0.00 67 1005.3
20260509152809 65 168 7.0 10.0 0.00 0.00 0.00 67 1005.5
20260509152306 63 244 2.0 9.0 0.00 0.00 0.00 69 1005.5
20260509151803 63 178 5.0 9.0 0.00 0.00 0.00 68 1005.2
20260509151258 63 232 9.0 14.0 0.00 0.00 0.00 70 1005.5
20260509150757 63 183 4.0 11.0 0.00 0.00 0.00 69 1005.3
20260509150255 63 231 7.0 9.0 0.00 0.00 0.00 71 1005.3
20260509145752 62 177 3.0 10.0 0.00 0.00 0.00 74 1005.4
20260509145251 62 144 7.0 11.0 0.00 0.00 0.00 73 1005.7
20260509144748 62 225 7.0 10.0 0.00 0.00 0.00 72 1005.5
20260509144245 62 197 10.0 14.0 0.00 0.00 0.00 73 1005.3
20260509143742 61 181 5.0 9.0 0.00 0.00 0.00 75 1005.1
20260509143240 61 194 6.0 10.0 0.00 0.00 0.00 75 1005.3
20260509142736 60 233 9.0 13.0 0.00 0.00 0.00 75 1005.4
20260509142232 60 218 8.0 14.0 0.00 0.00 0.00 76 1005.5
20260509141727 60 150 5.0 10.0 0.00 0.00 0.00 76 1005.3
20260509141225 60 171 9.0 10.0 0.00 0.00 0.00 78 1005.3
20260509140721 60 139 2.0 9.0 0.00 0.00 0.00 78 1005.2
20260509140222 60 294 5.0 10.0 0.00 0.00 0.00 78 1005.3
20260509135716 59 209 4.0 9.0 0.00 0.00 0.00 78 1005.3
20260509135214 59 183 2.0 9.0 0.00 0.00 0.00 79 1005.3
20260509134710 59 235 10.0 13.0 0.00 0.00 0.00 79 1005.4
20260509134208 59 205 6.0 13.0 0.00 0.00 0.00 79 1005.2
20260509133705 59 213 5.0 9.0 0.00 0.00 0.00 80 1005.2
20260509133202 58 149 5.0 11.0 0.00 0.00 0.00 82 1005.0
20260509132700 58 214 8.0 11.0 0.00 0.00 0.00 82 1005.1
20260509132159 57 166 3.0 7.0 0.00 0.00 0.00 83 1005.0
20260509131654 57 244 4.0 7.0 0.00 0.00 0.00 83 1005.1
20260509131151 57 169 4.0 15.0 0.00 0.00 0.00 84 1005.4
20260509130647 57 210 10.0 13.0 0.00 0.00 0.00 83 1005.1
20260509130143 57 240 6.0 10.0 0.00 0.00 0.00 84 1005.3
20260509125640 56 151 2.0 8.0 0.00 0.00 0.00 85 1005.3
20260509125137 56 197 7.0 10.0 0.00 0.00 0.00 85 1005.2
20260509124633 55 209 6.0 7.0 0.00 0.00 0.00 86 1005.2
20260509124130 55 231 4.0 7.0 0.00 0.00 0.00 87 1005.0
20260509123628 55 217 5.0 8.0 0.00 0.00 0.00 87 1005.1
20260509123125 55 186 6.0 8.0 0.00 0.00 0.00 88 1005.4
20260509122621 54 211 5.0 7.0 0.00 0.00 0.00 89 1005.2
20260509122118 54 191 7.0 10.0 0.00 0.00 0.00 90 1005.0
20260509121614 53 199 6.0 8.0 0.00 0.00 0.00 91 1005.2
20260509121113 53 137 4.0 7.0 0.00 0.00 0.00 93 1005.0
20260509120610 52 144 7.0 10.0 0.00 0.00 0.00 93 1005.0
20260509120108 52 166 5.0 7.0 0.00 0.00 0.00 93 1005.0
20260509115605 52 140 3.0 8.0 0.00 0.00 0.00 93 1005.1
20260509115103 52 204 7.0 9.0 0.00 0.00 0.00 94 1005.1
20260509114601 51 196 2.0 7.0 0.00 0.00 0.00 94 1004.9
20260509114100 51 224 4.0 4.0 0.00 0.00 0.00 94 1005.1
20260509113557 51 195 4.0 9.0 0.00 0.00 0.00 94 1004.7
20260509113055 51 180 6.0 7.0 0.00 0.00 0.00 94 1004.8
20260509112551 51 149 2.0 7.0 0.00 0.00 0.00 94 1004.7
20260509112048 51 212 4.0 7.0 0.00 0.00 0.00 94 1004.6
20260509111546 51 185 6.0 8.0 0.00 0.00 0.00 94 1004.6
20260509111043 51 159 6.0 8.0 0.00 0.00 0.00 94 1004.4
20260509110540 51 207 5.0 9.0 0.00 0.00 0.00 94 1004.5
20260509110037 52 155 4.0 8.0 0.00 0.00 0.00 93 1004.6
20260509105534 51 175 4.0 10.0 0.00 0.00 0.00 93 1004.6
20260509105032 51 214 4.0 6.0 0.00 0.00 0.00 94 1004.7
20260509104529 51 179 6.0 8.0 0.00 0.00 0.00 94 1004.8
20260509104026 52 153 3.0 6.0 0.00 0.00 0.00 94 1004.4
20260509103523 52 162 7.0 9.0 0.00 0.00 0.00 93 1004.4
20260509103021 52 215 7.0 9.0 0.00 0.00 0.00 93 1004.5
20260509102518 52 185 5.0 9.0 0.00 0.00 0.00 94 1004.2
20260509102015 52 192 3.0 7.0 0.00 0.00 0.00 94 1004.3
20260509101511 51 206 4.0 7.0 0.00 0.00 0.00 94 1004.4
20260509101008 51 192 5.0 8.0 0.00 0.00 0.00 94 1004.3
20260509100505 51 176 3.0 7.0 0.00 0.00 0.00 95 1004.4
20260509100002 51 132 5.0 8.0 0.00 0.00 0.00 95 1004.4
20260509095459 51 177 7.0 9.0 0.00 0.00 0.00 96 1004.6
20260509094956 51 161 4.0 7.0 0.00 0.00 0.00 96 1004.6
20260509094452 51 141 4.0 6.0 0.00 0.00 0.00 96 1004.7
20260509093950 51 207 4.0 4.0 0.00 0.00 0.00 96 1004.9
20260509093448 51 171 2.0 4.0 0.00 0.00 0.00 96 1004.9
20260509092945 51 173 4.0 6.0 0.00 0.00 0.00 96 1004.7
20260509092443 51 171 2.0 6.0 0.00 0.00 0.00 96 1005.0
20260509091942 51 141 2.0 7.0 0.00 0.00 0.00 96 1005.2
20260509091438 51 149 2.0 7.0 0.00 0.00 0.00 95 1005.1
20260509090935 51 131 2.0 4.0 0.00 0.00 0.00 95 1005.2
20260509090432 51 185 4.0 8.0 0.00 0.00 0.00 95 1005.2
20260509085931 51 217 6.0 9.0 0.00 0.00 0.00 95 1005.0
20260509085427 51 145 2.0 2.0 0.00 0.00 0.00 95 1005.0
20260509084923 51 137 3.0 8.0 0.00 0.00 0.00 95 1005.1
20260509084420 51 186 4.0 6.0 0.00 0.00 0.00 95 1005.2
20260509083918 51 146 3.0 7.0 0.00 0.00 0.00 94 1005.3
20260509083415 51 154 4.0 7.0 0.00 0.00 0.00 94 1005.3
20260509082911 51 142 3.0 3.0 0.00 0.00 0.00 94 1005.2
20260509082409 52 195 5.0 7.0 0.00 0.00 0.00 94 1005.4
20260509081905 52 142 3.0 6.0 0.00 0.00 0.00 93 1005.3
20260509081402 52 173 4.0 7.0 0.00 0.00 0.00 93 1005.3
20260509080900 52 179 4.0 6.0 0.00 0.00 0.00 93 1005.3
20260509080358 52 127 2.0 6.0 0.00 0.00 0.00 92 1005.1
20260509075856 52 159 4.0 6.0 0.00 0.00 0.00 92 1005.1
20260509075352 52 155 4.0 7.0 0.00 0.00 0.00 92 1005.3
20260509074850 52 125 3.0 6.0 0.00 0.00 0.00 92 1005.4
20260509074348 52 129 2.0 7.0 0.00 0.00 0.00 92 1005.3
20260509073843 53 164 3.0 7.0 0.00 0.00 0.00 91 1005.4
20260509073340 53 188 5.0 6.0 0.00 0.00 0.00 91 1005.4
20260509072837 53 226 5.0 7.0 0.00 0.00 0.00 91 1005.8
20260509072333 53 160 3.0 4.0 0.00 0.00 0.00 91 1005.5
20260509071830 53 205 3.0 8.0 0.00 0.00 0.00 91 1005.5
20260509071327 53 184 2.0 9.0 0.00 0.00 0.00 90 1005.6
20260509070824 53 174 3.0 8.0 0.00 0.00 0.00 90 1005.6
20260509070321 53 181 5.0 7.0 0.00 0.00 0.00 90 1005.8
20260509065817 53 150 3.0 9.0 0.00 0.00 0.00 90 1005.8
20260509065313 53 201 2.0 4.0 0.00 0.00 0.00 90 1006.1
20260509064809 53 179 3.0 6.0 0.00 0.00 0.00 89 1006.0
20260509064307 53 144 2.0 4.0 0.00 0.00 0.00 89 1006.0
20260509063804 53 193 5.0 8.0 0.00 0.00 0.00 89 1006.1
20260509063300 53 183 3.0 6.0 0.00 0.00 0.00 89 1006.0
20260509062758 53 191 4.0 6.0 0.00 0.00 0.00 90 1006.3
20260509062255 53 135 3.0 6.0 0.00 0.00 0.00 89 1006.2
20260509061752 53 148 2.0 6.0 0.00 0.00 0.00 89 1006.0
20260509061250 53 152 2.0 7.0 0.00 0.00 0.00 90 1006.4
20260509060747 53 137 3.0 6.0 0.00 0.00 0.00 90 1006.4
20260509060243 53 156 2.0 3.0 0.00 0.00 0.00 90 1006.5
20260509055739 53 152 4.0 7.0 0.00 0.00 0.00 90 1006.5
20260509055235 54 160 4.0 6.0 0.00 0.00 0.00 89 1006.6
20260509054732 54 151 4.0 4.0 0.00 0.00 0.00 89 1006.6
20260509054229 54 158 3.0 6.0 0.00 0.00 0.00 89 1006.5
20260509053727 54 181 4.0 7.0 0.00 0.00 0.00 89 1006.4
20260509053224 54 145 2.0 6.0 0.00 0.00 0.00 89 1006.6
20260509052722 54 142 2.0 4.0 0.00 0.00 0.00 88 1006.6
20260509052219 54 160 3.0 4.0 0.00 0.00 0.00 88 1006.4
20260509051717 55 164 4.0 6.0 0.00 0.00 0.00 87 1006.6
20260509051214 55 189 4.0 6.0 0.00 0.00 0.00 87 1006.5
20260509050711 55 194 3.0 6.0 0.00 0.00 0.00 86 1006.5
20260509050207 55 156 3.0 6.0 0.00 0.00 0.00 86 1006.4
20260509045705 55 190 6.0 10.0 0.00 0.00 0.00 85 1006.6
20260509045201 55 176 4.0 7.0 0.00 0.00 0.00 85 1006.6
20260509044659 55 164 4.0 7.0 0.00 0.00 0.00 84 1006.7
20260509044156 56 166 4.0 7.0 0.00 0.00 0.00 83 1006.6
20260509043652 56 180 6.0 7.0 0.00 0.00 0.00 83 1006.4
20260509043148 56 151 5.0 9.0 0.00 0.00 0.00 82 1006.5
20260509042645 56 138 4.0 6.0 0.00 0.00 0.00 81 1006.6
20260509042141 56 196 5.0 6.0 0.00 0.00 0.00 80 1006.4
20260509041638 56 192 3.0 7.0 0.00 0.00 0.00 79 1006.6
20260509041135 57 194 4.0 7.0 0.00 0.00 0.00 78 1006.5
20260509040634 57 196 7.0 11.0 0.00 0.00 0.00 77 1006.6
20260509040130 57 162 2.0 6.0 0.00 0.00 0.00 76 1006.6
20260509035627 57 145 6.0 8.0 0.00 0.00 0.00 75 1006.7
20260509035123 57 163 3.0 9.0 0.00 0.00 0.00 75 1006.8
20260509034622 58 195 6.0 9.0 0.00 0.00 0.00 74 1006.9
20260509034118 58 193 5.0 7.0 0.00 0.00 0.00 74 1006.8
20260509033615 58 137 4.0 7.0 0.00 0.00 0.00 74 1006.9
20260509033112 58 193 4.0 6.0 0.00 0.00 0.00 74 1006.7
20260509032609 58 155 4.0 8.0 0.00 0.00 0.00 73 1006.7
20260509032106 58 161 5.0 10.0 0.00 0.00 0.00 72 1006.8
20260509031604 58 193 2.0 6.0 0.00 0.00 0.00 72 1006.7
20260509031101 58 208 4.0 7.0 0.00 0.00 0.00 71 1006.8
20260509030559 59 198 5.0 9.0 0.00 0.00 0.00 70 1006.6
20260509030056 59 177 4.0 8.0 0.00 0.00 0.00 68 1006.8
20260509025552 59 159 6.0 8.0 0.00 0.00 0.00 67 1006.6
20260509025048 59 173 7.0 8.0 0.00 0.00 0.00 66 1006.8
20260509024544 59 169 6.0 8.0 0.00 0.00 0.00 64 1006.6
20260509024040 59 116 2.0 7.0 0.00 0.00 0.00 64 1006.8
20260509023538 59 155 4.0 4.0 0.00 0.00 0.00 64 1006.8
20260509023034 59 138 1.0 3.0 0.00 0.00 0.00 64 1006.7
20260509022531 59 157 4.0 4.0 0.00 0.00 0.00 63 1006.7
20260509022029 59 139 2.0 3.0 0.00 0.00 0.00 63 1006.9
20260509021526 59 146 2.0 4.0 0.00 0.00 0.00 63 1006.7
20260509021023 59 142 2.0 3.0 0.00 0.00 0.00 64 1006.9
20260509020521 59 134 1.0 2.0 0.00 0.00 0.00 64 1006.8
20260509020017 59 130 1.0 2.0 0.00 0.00 0.00 63 1006.8
20260509015516 60 132 1.0 3.0 0.00 0.00 0.00 63 1006.8
20260509015013 60 137 2.0 2.0 0.00 0.00 0.00 61 1006.6
20260509014510 61 142 2.0 3.0 0.00 0.00 0.00 60 1006.7
20260509014006 61 138 2.0 4.0 0.00 0.00 0.00 59 1006.7
20260509013503 61 149 2.0 3.0 0.00 0.00 0.00 58 1006.8
20260509012959 62 164 2.0 3.0 0.00 0.00 0.00 57 1006.6
20260509012455 62 172 1.0 4.0 0.00 0.00 0.00 57 1006.6
20260509011952 62 165 2.0 4.0 0.00 0.00 0.00 56 1006.6
20260509011450 62 130 2.0 3.0 0.00 0.00 0.00 56 1006.6
20260509010947 62 131 3.0 7.0 0.00 0.00 0.00 56 1006.6
20260509010445 63 174 3.0 3.0 0.00 0.00 0.00 55 1006.5
20260509005942 63 158 6.0 7.0 0.00 0.00 0.00 54 1006.6
20260509005440 63 178 5.0 6.0 0.00 0.00 0.00 54 1006.5
20260509004940 63 141 4.0 6.0 0.00 0.00 0.00 54 1006.6
20260509004437 64 180 3.0 4.0 0.00 0.00 0.00 53 1006.4
20260509003935 64 172 3.0 7.0 0.00 0.00 0.00 52 1006.5
20260509003432 64 160 3.0 6.0 0.00 0.00 0.00 51 1006.7
20260509002929 64 155 4.0 4.0 0.00 0.00 0.00 51 1006.4
20260509002427 65 138 2.0 3.0 0.00 0.00 0.00 51 1006.8
20260509001924 65 155 2.0 4.0 0.00 0.00 0.00 51 1006.7
20260509001420 65 140 1.0 4.0 0.00 0.00 0.00 50 1006.6
20260509000917 65 149 4.0 6.0 0.00 0.00 0.00 50 1006.7
20260509000417 65 146 4.0 6.0 0.00 0.00 0.00 51 1006.6
20260508235910 65 144 4.0 6.0 0.00 0.00 0.00 51 1006.7
20260508235409 65 193 2.0 4.0 0.00 0.00 0.00 50 1006.7
20260508234905 65 128 3.0 3.0 0.00 0.00 0.00 51 1006.8
20260508234401 65 178 4.0 8.0 0.00 0.00 0.00 50 1006.7
20260508233900 66 214 4.0 4.0 0.00 0.00 0.00 49 1006.7
20260508233359 66 150 3.0 6.0 0.00 0.00 0.00 49 1006.9
20260508232855 65 130 1.0 2.0 0.00 0.00 0.00 50 1006.8
20260508232352 65 169 2.0 3.0 0.00 0.00 0.00 49 1006.9
20260508231850 65 193 3.0 3.0 0.00 0.00 0.00 48 1006.8
20260508231346 65 189 3.0 6.0 0.00 0.00 0.00 49 1006.7
20260508230843 65 165 4.0 6.0 0.00 0.00 0.00 48 1006.8
20260508230339 66 113 4.0 8.0 0.00 0.00 0.00 48 1006.9
20260508225838 66 144 2.0 3.0 0.00 0.00 0.00 48 1006.9
20260508225333 67 178 5.0 8.0 0.00 0.00 0.00 46 1006.8
20260508224832 67 206 2.0 4.0 0.00 0.00 0.00 45 1006.9
20260508224329 67 208 6.0 7.0 0.00 0.00 0.00 44 1006.8
20260508223826 67 206 5.0 9.0 0.00 0.00 0.00 44 1007.1
20260508223323 67 188 6.0 8.0 0.00 0.00 0.00 46 1007.1
20260508222821 66 195 4.0 7.0 0.00 0.00 0.00 48 1006.9
20260508222318 66 144 5.0 9.0 0.00 0.00 0.00 47 1006.9
20260508221815 66 190 2.0 6.0 0.00 0.00 0.00 49 1007.1
20260508221310 66 122 2.0 4.0 0.00 0.00 0.00 49 1007.2
20260508220806 66 172 2.0 7.0 0.00 0.00 0.00 49 1007.2
20260508220303 66 181 2.0 6.0 0.00 0.00 0.00 48 1007.3
20260508215759 66 197 6.0 10.0 0.00 0.00 0.00 48 1007.3
20260508215256 65 212 5.0 8.0 0.00 0.00 0.00 48 1007.3
20260508214754 66 172 2.0 4.0 0.00 0.00 0.00 50 1007.4
20260508214251 66 160 4.0 6.0 0.00 0.00 0.00 49 1007.3
20260508213747 66 156 6.0 6.0 0.00 0.00 0.00 48 1007.3
20260508213244 66 117 1.0 2.0 0.00 0.00 0.00 48 1007.4
20260508212741 66 198 2.0 2.0 0.00 0.00 0.00 46 1007.6
20260508212237 66 104 0.0 0.0 0.00 0.00 0.00 46 1007.5
20260508211733 64 122 0.0 1.0 0.00 0.00 0.00 46 1007.6
20260508211228 64 118 3.0 3.0 0.00 0.00 0.00 48 1007.5
20260508210726 65 73 2.0 2.0 0.00 0.00 0.00 48 1007.7
20260508210223 65 79 0.0 2.0 0.00 0.00 0.00 49 1007.7
20260508205720 65 121 2.0 2.0 0.00 0.00 0.00 46 1007.7
20260508205216 65 90 0.0 1.0 0.00 0.00 0.00 47 1007.6
20260508204712 66 63 1.0 3.0 0.00 0.00 0.00 47 1007.5
20260508204209 66 103 0.0 1.0 0.00 0.00 0.00 46 1007.7
20260508203705 65 158 3.0 3.0 0.00 0.00 0.00 47 1007.7
20260508203201 65 97 0.0 1.0 0.00 0.00 0.00 50 1008.1
20260508202657 65 84 1.0 6.0 0.00 0.00 0.00 48 1008.0
20260508202155 64 106 1.0 2.0 0.00 0.00 0.00 51 1008.0